Погода в Кургане

Россия / Курганская область     55°26′29″N   65°20′39″E
темп.,
°C
ветер,
м/с
пор.,
м/с
влажн.,
%
обл.,
%
осадки,
мм/ч
давл.,
гПа
погр.,
м
12 апреля, пн
пн1223:00+2ююз4128973 0.0 1036228
02:00+1ююз4129057 0.0 1035218
05:00+1юз499254 0.0 1035171
08:00+4юз3691100 0.0 1034151
11:00+9з3585100 0.0 1034324
14:00+10зсз3694100 0.0 1034321
17:00+7зсз2699100 0.3 1036239
20:00+6ссз3896100 0.0 1037186
13 апреля, вт
вт1323:00+5ссз38920 0.0 1038132
02:00+3с24892 0.0 104057
05:00+2ссв22870 0.0 104127
08:00+5ссв23740 0.0 1042144
11:00+9з11550 0.0 1042621
14:00+12юз33472 0.0 10411043
17:00+12юз34500 0.0 1040946
20:00+7юз34762 0.0 103947
14 апреля, ср
ср1423:00+5юз378628 0.0 1038118
02:00+4юз4118686 0.0 1037220
05:00+4юз41189100 0.0 1036249
08:00+6юз41182100 0.0 1035320
11:00+12зюз576444 0.0 1033529
14:00+16зюз57605 0.0 1032878
17:00+16з56615 0.0 1030992
20:00+11зюз35815 0.0 102981
15 апреля, чт
чт1523:00+9зюз35835 0.0 102981
02:00+8зюз348236 0.0 102862
05:00+7зюз33857 0.0 102836
08:00+10зюз23785 0.0 1027143
11:00+16зюз346212 0.0 1026607
14:00+18зюз45505 0.0 10241145
17:00+18зюз45495 0.0 10211136
20:00+13зюз34705 0.0 102051
16 апреля, пт
пт1623:00+11зюз347110 0.0 101960
02:00+9зюз35685 0.0 101867
05:00+7з227862 0.0 101623
08:00+10з2570100 0.0 1016146
11:00+15зсз3549100 0.0 1014705
14:00+17зсз3442100 0.0 10121667
17:00+17ссз444992 0.0 10111542
20:00+9ссв71084100 0.1 1012469